Date,TemperatureHighF,TemperatureAvgF,TemperatureLowF,DewpointHighF,DewpointAvgF,DewpointLowF,HumidityHigh,HumidityAvg,HumidityLow,PressureMaxIn,PressureMinIn,WindSpeedMaxMPH,WindSpeedAvgMPH,GustSpeedMaxMPH,PrecipitationSumIn
2013-7-9,79,62,76,73,38,-100,87,66,78,29.93,29.92,4,-198,0,0.04
2013-7-10,92,80,71,76,73,70,99,81,58,29.94,29.86,8,2,0,0.39
2013-7-11,91,83,76,77,74,70,92,76,62,29.91,29.84,10,3,0,0.00
2013-7-12,95,80,73,77,74,70,99,83,55,29.90,29.81,11,2,0,0.74
2013-7-13,88,77,73,77,74,72,99,92,68,29.95,29.85,10,3,0,0.75
2013-7-14,87,79,72,76,73,71,99,85,64,30.03,29.91,11,4,0,0.12
2013-7-15,90,80,74,76,74,70,97,81,61,30.03,29.93,11,4,0,0.28
2013-7-16,85,80,72,75,73,69,99,80,68,30.07,29.97,19,7,0,0.98
2013-7-17,83,79,72,75,73,70,97,81,72,30.03,29.95,10,5,0,1.04
2013-7-18,88,78,72,77,74,70,99,86,67,30.01,29.93,9,3,0,1.28
2013-7-19,88,77,73,78,75,73,99,93,69,30.01,29.96,6,2,0,0.01
2013-7-25,87,79,82,75,62,-100,80,66,67,29.88,29.85,5,-65,0,0.00
2013-7-26,96,83,78,78,76,71,97,79,48,29.90,29.81,7,3,0,0.55
2013-7-27,92,80,73,79,76,72,99,89,65,29.88,29.81,6,2,0,0.86
2013-7-28,89,80,74,78,76,71,98,88,66,29.96,29.83,9,2,0,0.76
2013-7-29,92,82,75,78,76,72,99,81,61,30.02,29.92,7,3,0,0.00
2013-7-30,92,86,80,79,77,74,89,77,63,30.04,29.96,11,4,0,0.00
2013-7-31,93,86,82,78,76,74,86,73,58,29.99,29.89,10,5,0,0.00
2013-8-1,92,85,79,76,74,73,86,71,57,29.94,29.83,9,5,0,0.00
2013-8-2,91,80,72,77,74,70,97,81,58,29.93,29.80,12,3,0,0.69
2013-8-3,85,79,75,79,75,72,97,88,78,30.01,29.91,11,3,0,0.03
2013-8-4,95,81,74,78,75,72,99,85,59,29.99,29.85,10,2,0,1.25
2013-8-5,92,81,75,81,76,71,99,84,59,29.91,29.82,9,3,0,0.00
2013-8-6,92,83,74,78,75,73,98,79,62,29.86,29.78,8,2,0,0.00
2013-8-7,91,85,78,78,76,74,92,75,61,29.86,29.79,12,4,0,0.01
2013-10-26,86,78,69,62,56,-100,71,50,42,30.02,29.92,10,-14,0,0.00
2013-10-27,84,75,64,63,60,57,79,61,47,29.97,29.89,10,4,0,0.00
2013-10-28,87,80,75,64,61,57,60,53,42,30.01,29.92,9,5,0,0.00
2013-10-29,87,81,77,66,63,60,62,55,47,30.04,29.96,17,6,0,0.00
2013-10-30,87,80,77,66,63,60,63,56,45,30.06,29.94,16,7,0,0.00
2013-10-31,88,81,78,70,66,61,73,60,50,29.99,29.85,13,6,0,0.00
2013-11-1,89,82,79,71,69,68,71,65,53,29.86,29.73,15,6,0,0.00
2013-11-2,92,80,71,70,66,58,88,65,38,29.79,29.64,10,3,0,0.00
2013-11-3,82,75,68,62,59,56,74,60,49,29.90,29.75,23,8,0,0.00
2013-11-4,82,77,74,64,59,53,64,54,45,29.95,29.88,23,12,0,0.01
2013-11-5,84,79,77,68,65,59,70,62,53,29.97,29.89,18,10,0,0.00
2013-11-6,87,80,77,66,65,61,69,60,47,29.94,29.87,14,6,0,0.00
2013-11-7,87,77,70,70,67,63,88,72,57,29.89,29.79,9,4,0,0.00
2013-11-8,83,77,71,70,68,64,83,74,64,29.91,29.80,23,10,0,0.23
2013-11-9,80,77,75,68,67,66,80,70,65,30.00,29.89,21,11,0,0.04
2013-11-10,85,80,78,68,66,63,70,63,54,30.00,29.92,14,7,0,0.00
2013-11-11,86,80,77,67,64,61,68,60,51,29.99,29.92,10,6,0,0.00
2013-11-12,87,79,75,66,64,62,71,60,46,29.95,29.83,8,4,0,0.00
2013-11-13,77,73,69,64,59,49,81,62,49,30.10,29.86,25,11,0,0.20
2013-11-14,78,73,69,57,55,50,58,53,46,30.12,30.01,22,10,0,0.00
2013-11-15,82,77,74,64,62,57,64,60,53,30.02,29.91,14,8,0,0.00
2013-11-16,83,78,75,73,66,64,90,67,53,29.97,29.88,12,6,0,0.18
2013-11-17,86,80,77,69,68,66,75,67,55,29.95,29.87,12,6,0,0.01
2013-11-18,84,78,74,71,69,68,83,73,61,29.89,29.78,6,3,0,0.22
2013-11-19,84,77,72,70,68,67,84,75,58,29.80,29.72,12,4,0,0.02
2013-11-20,85,76,69,70,68,65,89,77,59,29.92,29.78,9,3,0,0.26
2013-11-21,79,76,73,70,69,67,87,78,70,30.02,29.91,15,6,0,1.24
2013-11-22,84,78,76,68,66,64,74,66,54,30.04,29.95,15,7,0,0.00
2013-11-23,84,78,75,67,65,63,72,65,54,29.96,29.85,12,5,0,0.00
2013-11-24,82,74,67,68,64,60,90,71,56,30.04,29.86,32,8,0,0.30
2013-11-25,75,73,71,65,60,54,75,65,53,30.09,29.93,27,12,0,0.01
2013-11-26,84,78,73,71,69,64,81,75,66,29.94,29.69,22,9,0,0.16
2013-11-27,80,71,56,72,61,47,89,71,46,30.00,29.64,12,5,0,0.58
2013-11-28,76,63,47,56,49,41,82,62,41,30.13,29.98,20,7,0,0.00
2013-11-29,80,73,60,59,55,51,79,55,42,30.15,30.08,20,9,0,0.00
2013-11-30,77,72,62,66,60,57,87,66,53,30.09,29.98,22,8,0,0.55
2013-12-1,82,72,67,67,65,60,91,78,55,29.98,29.80,11,5,0,1.05
2013-12-2,70,67,61,66,63,60,94,88,75,29.80,29.69,7,2,0,0.16
2013-12-3,80,70,60,67,63,59,96,79,54,29.87,29.76,6,2,0,0.00
2013-12-4,85,74,65,70,66,63,94,77,60,29.96,29.85,10,3,0,0.00
2013-12-5,83,78,75,73,70,66,90,78,68,30.04,29.94,12,5,0,0.08
2013-12-6,85,79,76,72,70,68,83,74,63,30.05,29.95,12,6,0,0.00
2013-12-7,83,75,70,72,70,67,97,85,70,30.09,30.01,10,3,0,0.24
2013-12-8,84,79,76,74,71,68,83,76,66,30.10,30.01,11,6,0,0.00
2013-12-9,86,79,76,71,69,65,81,71,57,30.08,30.00,14,6,0,0.00
2013-12-10,86,79,74,74,72,70,92,78,64,30.05,29.97,12,5,0,0.00
2013-12-11,86,77,70,74,71,68,99,82,58,30.09,30.00,6,2,0,0.00
2013-12-12,76,73,70,73,67,59,99,83,64,30.11,30.02,19,7,0,0.07
2013-12-13,79,74,71,67,63,57,80,69,61,30.10,29.99,20,8,0,0.00
2013-12-14,83,78,74,73,71,67,89,79,69,30.00,29.87,17,8,0,0.01
2013-12-15,83,76,71,75,72,67,94,88,77,29.95,29.81,9,4,0,0.00
2013-12-16,76,67,61,67,61,59,93,82,67,30.04,29.92,11,5,0,0.00
2013-12-17,79,68,58,63,59,57,98,75,53,30.08,29.99,9,4,0,0.00
2013-12-18,76,67,59,61,58,56,99,77,54,30.13,30.02,10,4,0,0.00
2013-12-19,80,73,63,64,60,56,85,64,52,30.13,30.05,13,5,0,0.00
2013-12-20,83,77,74,72,67,64,85,72,63,30.09,30.00,11,6,0,0.00
2013-12-21,85,79,76,73,72,69,85,78,67,30.04,29.95,12,6,0,0.00
2013-12-22,86,80,78,74,73,71,85,79,67,30.05,29.97,17,8,0,0.00
2013-12-23,86,79,72,75,72,70,93,81,69,30.07,29.98,14,6,0,0.00
2013-12-24,85,72,68,72,67,62,99,85,63,30.05,29.97,16,5,0,0.00
2013-12-25,75,72,70,67,65,62,87,77,71,30.06,29.98,22,11,0,0.03
2013-12-26,81,75,72,70,69,66,84,79,71,30.04,29.93,13,6,0,0.00
2013-12-27,83,77,74,72,70,68,88,78,67,30.07,29.95,14,8,0,0.00
2013-12-28,81,77,75,72,70,67,89,79,72,30.05,29.89,18,8,0,0.01
2013-12-29,82,78,72,75,73,71,96,87,76,29.89,29.78,14,7,0,0.14
2013-12-30,77,72,70,72,69,66,98,91,80,30.01,29.83,11,3,0,0.00
2013-12-31,81,74,68,66,65,62,89,74,60,30.10,29.97,16,8,0,0.00
2014-1-1,82,77,72,74,70,64,89,81,70,30.07,29.91,14,7,0,0.04
2014-1-2,89,78,72,73,69,65,95,76,50,29.91,29.73,14,5,0,0.00